Hourly Weather Dzierzbin

Today, 8 May, Saturday

Time Temperature Precipitation Wind Pressure Humidity
00:00 +1°C° 0 mm 5 mps 749 mmHg 96%
01:00 0°C° 0 mm 5 mps 749 mmHg 96%
02:00 0°C° 0 mm 5 mps 750 mmHg 96%
03:00 0°C° 0 mm 4 mps 750 mmHg 96%
04:00 0°C° 0 mm 4 mps 750 mmHg 96%
05:00 +1°C° 0 mm 5 mps 751 mmHg 92%
06:00 +2°C° 0 mm 5 mps 751 mmHg 89%
07:00 +3°C° 0 mm 6 mps 752 mmHg 85%
08:00 +4°C° 0 mm 6 mps 752 mmHg 77%
09:00 +5°C° 0 mm 6 mps 752 mmHg 69%
10:00 +8°C° 0 mm 6 mps 752 mmHg 62%
11:00 +9°C° 0 mm 6 mps 752 mmHg 57%
12:00 +9°C° 0 mm 6 mps 752 mmHg 52%
13:00 +10°C° 0 mm 6 mps 752 mmHg 47%
14:00 +10°C° 0 mm 5 mps 752 mmHg 47%
15:00 +12°C° 0 mm 5 mps 752 mmHg 47%
16:00 +12°C° 0 mm 4 mps 752 mmHg 47%
17:00 +10°C° 0 mm 3 mps 752 mmHg 54%
18:00 +9°C° 0 mm 2 mps 752 mmHg 60%
19:00 +9°C° 0 mm 1 mps 752 mmHg 67%
20:00 +7°C° 0 mm 2 mps 753 mmHg 68%
21:00 +6°C° 0 mm 2 mps 753 mmHg 69%
22:00 +5°C° 0 mm 3 mps 753 mmHg 70%
23:00 +4°C° 0 mm 3 mps 753 mmHg 73%

Tomorrow, 9 May, Sunday

Time Temperature Precipitation Wind Pressure Humidity
00:00 +4°C° 0 mm 3 mps 753 mmHg 76%
01:00 +4°C° 0 mm 3 mps 753 mmHg 78%
02:00 +4°C° 0 mm 4 mps 753 mmHg 79%
03:00 +4°C° 0 mm 4 mps 752 mmHg 79%
04:00 +3°C° 0 mm 4 mps 752 mmHg 80%
05:00 +5°C° 0 mm 5 mps 752 mmHg 77%
06:00 +7°C° 0 mm 5 mps 752 mmHg 73%
07:00 +8°C° 0 mm 6 mps 752 mmHg 70%
08:00 +10°C° 0 mm 6 mps 752 mmHg 67%
09:00 +11°C° 0 mm 6 mps 751 mmHg 64%
10:00 +14°C° 0 mm 6 mps 751 mmHg 61%
11:00 +15°C° 0 mm 6 mps 751 mmHg 57%
12:00 +17°C° 0 mm 6 mps 751 mmHg 54%
13:00 +19°C° 0 mm 6 mps 751 mmHg 51%
14:00 +19°C° 0 mm 6 mps 750 mmHg 54%
15:00 +20°C° 0 mm 5 mps 750 mmHg 58%
16:00 +20°C° 0 mm 5 mps 750 mmHg 61%
17:00 +17°C° 0 mm 5 mps 750 mmHg 65%
18:00 +16°C° 0 mm 5 mps 750 mmHg 69%
19:00 +14°C° 0 mm 5 mps 750 mmHg 73%
20:00 +13°C° 0 mm 5 mps 750 mmHg 70%
21:00 +13°C° 0 mm 5 mps 750 mmHg 67%
22:00 +12°C° 0 mm 5 mps 750 mmHg 65%
23:00 +12°C° 0 mm 5 mps 750 mmHg 66%

Day after tomorrow, 10 May, Monday

Time Temperature Precipitation Wind Pressure Humidity
00:00 +10°C° 0 mm 5 mps 750 mmHg 67%
01:00 +9°C° 0 mm 5 mps 750 mmHg 68%
02:00 +9°C° 0 mm 5 mps 750 mmHg 70%
03:00 +10°C° 0 mm 4 mps 750 mmHg 72%
04:00 +8°C° 0 mm 4 mps 749 mmHg 74%
05:00 +10°C° 0 mm 5 mps 749 mmHg 73%
06:00 +12°C° 0 mm 5 mps 749 mmHg 72%
07:00 +14°C° 0 mm 5 mps 749 mmHg 70%
08:00 +15°C° 0 mm 6 mps 749 mmHg 66%
09:00 +17°C° 0 mm 6 mps 749 mmHg 61%
10:00 +20°C° 0 mm 7 mps 749 mmHg 56%
11:00 +21°C° 0 mm 7 mps 748 mmHg 54%
12:00 +22°C° 0 mm 7 mps 748 mmHg 53%
13:00 +23°C° 0 mm 7 mps 748 mmHg 52%
14:00 +23°C° 0 mm 7 mps 748 mmHg 55%
15:00 +23°C° 0 mm 6 mps 748 mmHg 58%
16:00 +23°C° 0 mm 6 mps 748 mmHg 61%
17:00 +21°C° 0 mm 5 mps 748 mmHg 66%
18:00 +20°C° 0 mm 5 mps 748 mmHg 72%
19:00 +18°C° 0 mm 4 mps 748 mmHg 78%
20:00 +17°C° 0 mm 4 mps 748 mmHg 80%
21:00 +15°C° 0 mm 4 mps 748 mmHg 83%
22:00 +14°C° 0 mm 4 mps 748 mmHg 86%
23:00 +14°C° 0 mm 4 mps 748 mmHg 87%

11 May, Tuesday

Time Temperature Precipitation Wind Pressure Humidity
00:00 +14°C° 0 mm 4 mps 748 mmHg 88%
01:00 +13°C° 0 mm 4 mps 748 mmHg 89%
02:00 +13°C° 0 mm 4 mps 747 mmHg 87%
03:00 +13°C° 0 mm 4 mps 747 mmHg 86%
04:00 +13°C° 0 mm 4 mps 747 mmHg 85%
05:00 +14°C° 0 mm 5 mps 747 mmHg 81%
06:00 +15°C° 0 mm 6 mps 747 mmHg 78%
07:00 +17°C° 0 mm 6 mps 747 mmHg 75%
08:00 +18°C° 0 mm 7 mps 747 mmHg 69%
09:00 +21°C° 0 mm 7 mps 747 mmHg 64%
10:00 +23°C° 0 mm 7 mps 746 mmHg 59%
11:00 +24°C° 0 mm 7 mps 746 mmHg 58%
12:00 +26°C° 0 mm 7 mps 746 mmHg 56%
13:00 +27°C° 0 mm 7 mps 746 mmHg 54%
14:00 +27°C° 0 mm 7 mps 746 mmHg 56%
15:00 +27°C° 0 mm 6 mps 745 mmHg 58%
16:00 +27°C° 0 mm 6 mps 745 mmHg 60%
17:00 +25°C° 0 mm 5 mps 745 mmHg 65%
18:00 +22°C° 0 mm 4 mps 745 mmHg 71%
19:00 +20°C° 0 mm 4 mps 745 mmHg 77%
20:00 +20°C° 0 mm 4 mps 745 mmHg 78%
21:00 +19°C° 0 mm 5 mps 745 mmHg 78%
22:00 +17°C° 0 mm 5 mps 745 mmHg 79%
23:00 +16°C° 0 mm 5 mps 745 mmHg 81%

12 May, Wednesday

Time Temperature Precipitation Wind Pressure Humidity
00:00 +15°C° 0 mm 5 mps 745 mmHg 84%
01:00 +14°C° 0 mm 5 mps 745 mmHg 86%
02:00 +14°C° 0 mm 5 mps 744 mmHg 87%
03:00 +13°C° 0 mm 5 mps 744 mmHg 88%
04:00 +12°C° 0 mm 4 mps 744 mmHg 89%
05:00 +13°C° 0 mm 5 mps 744 mmHg 85%
06:00 +14°C° 0 mm 5 mps 744 mmHg 82%
07:00 +15°C° 0 mm 6 mps 744 mmHg 78%
08:00 +17°C° 0 mm 6 mps 744 mmHg 73%
09:00 +20°C° 0 mm 6 mps 744 mmHg 69%
10:00 +21°C° 0 mm 6 mps 744 mmHg 65%
11:00 +22°C° 0 mm 6 mps 744 mmHg 61%
12:00 +23°C° 0 mm 7 mps 744 mmHg 56%
13:00 +24°C° 0 mm 7 mps 743 mmHg 52%
14:00 +24°C° 0 mm 7 mps 743 mmHg 56%
15:00 +23°C° 0 mm 7 mps 743 mmHg 59%
16:00 +23°C° 0 mm 7 mps 743 mmHg 63%
17:00 +22°C° 0 mm 8 mps 743 mmHg 65%
18:00 +20°C° 0 mm 8 mps 743 mmHg 67%
19:00 +18°C° 0 mm 8 mps 743 mmHg 70%
20:00 +17°C° 0 mm 8 mps 743 mmHg 68%
21:00 +16°C° 0 mm 7 mps 743 mmHg 66%
22:00 +15°C° 0 mm 7 mps 744 mmHg 64%
23:00 +14°C° 0 mm 7 mps 744 mmHg 69%

13 May, Thursday

Time Temperature Precipitation Wind Pressure Humidity
00:00 +13°C° 0 mm 6 mps 743 mmHg 74%
01:00 +13°C° 0 mm 6 mps 743 mmHg 79%
02:00 +11°C° 0 mm 6 mps 743 mmHg 79%
03:00 +10°C° 0 mm 6 mps 744 mmHg 79%
04:00 +9°C° 0 mm 6 mps 744 mmHg 79%
05:00 +10°C° 0 mm 7 mps 744 mmHg 78%
06:00 +10°C° 0 mm 7 mps 744 mmHg 77%
07:00 +11°C° 0 mm 8 mps 744 mmHg 76%
08:00 +12°C° 0 mm 8 mps 744 mmHg 71%
09:00 +13°C° 0 mm 8 mps 744 mmHg 65%
10:00 +15°C° 0 mm 8 mps 744 mmHg 60%
11:00 +15°C° 0 mm 8 mps 744 mmHg 60%
12:00 +15°C° 0 mm 8 mps 744 mmHg 60%
13:00 +16°C° 0 mm 7 mps 743 mmHg 61%
14:00 +16°C° 0 mm 7 mps 743 mmHg 61%
15:00 +16°C° 0 mm 7 mps 743 mmHg 62%
16:00 +16°C° 0 mm 6 mps 743 mmHg 62%
17:00 +15°C° 0 mm 5 mps 743 mmHg 68%
18:00 +14°C° 0 mm 4 mps 743 mmHg 74%
19:00 +13°C° 0 mm 3 mps 743 mmHg 79%
20:00 +12°C° 0 mm 3 mps 743 mmHg 83%
21:00 +11°C° 0 mm 3 mps 743 mmHg 87%
22:00 +10°C° 0 mm 3 mps 743 mmHg 91%
23:00 +10°C° 0 mm 3 mps 743 mmHg 92%
Show more

We Need Your Consent

Meteoprog and our Service Providers may store and access personal data such as cookies, device identifiers or other similar technologies on your device and process such data to personalise content and ads, as well as provide social media features and to analyse the traffic.

  • Store and/or access information on your device

    Cookies, device identifiers or other information can be stored or accessed on your device for the purposes indicated above.

  • Personalised ads and content, ad and content measurement, audience insights, and products development

    Ads and content can be personalised based on a profile. More data can be added to better personalise ads and content. Ad and content performance can be measured. Insights about the audience who saw the ads and content can be derived. Such data can be used to develop or improve user’s experience, systems and software.

By clicking ‘I Agree’ you will allow the use of indicated cookies, device identifiers, web beacons or other similar technologies. Your settings can be changed in the browser on your device.

For certain purposes, legitimate interests may be relied on, rather than consent. You can read more about this in our Privacy and Cookie Policy.